Location: Plainartige
(45.6866°N, 1.7993°E)
Time: 20:15:03
(UTC+00:00)

Daily predictions for brighter satellites

Satellite Brightness Start Highest point End
(mag) Time Altitude Azimuth Time Altitude Azimuth Time Altitude Azimuth
Cosmos 1814 Rocket 4.3 19:32:46 10° NNW 19:38:00 74° WSW 19:43:08 10° SSE
SL-4 R/B 2.3 19:36:09 10° WNW 19:40:29 88° SSW 19:45:08 10° ESE
Cosmos 1805 Rocket 4.3 19:38:48 10° N 19:42:48 34° ENE 19:46:47 10° SE
X-37B 0.6 19:40:34 10° W 19:43:45 79° S 19:46:57 10° E
IRS-1A Rocket 4.4 19:45:19 10° SSE 19:51:03 77° ENE 19:56:56 10° NNW
Cosmos 1745 Rocket 4.3 19:45:50 10° N 19:51:50 48° ENE 19:57:45 10° SSE
SPOT 3 Rocket 4.1 19:49:37 10° SE 19:54:25 41° ENE 19:59:16 10° N
ERS-2 3.2 19:51:23 10° N 19:54:54 49° WNW 19:58:25 10° SSW
Cosmos 1844 4.0 19:51:03 10° S 19:56:28 45° ESE 20:01:51 10° NE
Resurs 1-3 3.6 19:52:10 10° SSE 19:56:31 71° ENE 20:00:54 10° N
Cosmos 1743 Rocket 3.5 19:52:39 10° N 19:57:01 87° E 20:01:22 10° S
Cosmos 968 Rocket 3.5 19:52:07 10° S 19:57:17 64° ESE 20:02:29 10° NNE
BREEZE-M DEB (TANK) 3.8 19:53:38 10° W 19:57:56 84° S 20:05:21 10° ESE
ATLAS 5 CENTAUR R/B 3.0 19:54:32 10° NNW 19:59:44 43° NE 20:05:41 11° ESE
BREEZE M DEB (TANK) 4.0 19:59:59 10° WSW 20:03:32 82° NNW 20:15:01 10° ENE
Cosmos 1486 Rocket 4.1 19:59:36 10° S 20:04:49 60° ESE 20:10:05 10° NNE
Intercosmos 25 Rocket 4.1 19:59:32 10° N 20:06:24 79° E 20:10:35 10° SSE
IGS 5A 3.9 20:04:31 11° SE 20:08:21 47° ENE 20:12:21 10° N
Cosmos 1500 Rocket 3.9 20:04:35 10° NNW 20:08:59 69° W 20:13:18 10° S
Cosmos 1833 Rocket 4.4 20:05:10 10° N 20:09:20 21° NE 20:13:30 10° E
Cosmos 2221 3.8 20:06:29 10° SSW 20:10:35 43° WNW 20:14:45 10° N
S3M 4.1 20:05:01 10° S 20:11:17 62° E 20:17:32 10° NNE
BREEZE-M R/B 1.8 20:09:17 10° SW 20:11:59 53° SSE 20:14:22 10° ENE
USA 186 4.2 20:11:14 10° SW 20:12:55 16° W 20:14:33 10° NW
Cosmos 1666 Rocket 4.3 20:12:49 10° N 20:16:55 36° ENE 20:19:58 16° SE
FALCON 9 DEB 4.2 20:15:19 10° WNW 20:18:00 29° SW 20:20:03 14° SSE
Cosmos 1933 3.5 20:17:46 10° S 20:21:43 53° E 20:25:39 10° NNE
USA 245 3.7 20:23:48 18° E 20:24:13 18° ENE 20:25:54 10° NNE
FALCON 9 DEB 4.5 20:21:41 10° W 20:24:13 24° SW 20:26:04 14° S
Cosmos 1242 Rocket 2.7 20:24:03 12° S 20:27:14 48° E 20:30:41 10° NNE
OBJECT-B 3.3 20:25:00 10° SW 20:27:32 21° W 20:30:06 10° NW
Cosmos 1553 Rocket 4.3 20:23:52 10° SSW 20:29:57 68° W 20:36:11 10° N
Cosmos 1437 Rocket 3.2 20:27:22 10° SSW 20:31:11 63° WNW 20:35:07 10° N
BREEZE M DEB (TANK) 3.2 20:25:54 10° W 20:31:46 47° N 20:34:07 11° ENE
FALCON 9 DEB 4.3 20:30:27 10° WNW 20:33:05 26° SW 20:34:36 18° S
Resurs 01 Rocket 1.7 20:29:42 12° S 20:33:52 81° WSW 20:38:20 10° NNW
OE (NEXTSAT) 4.3 20:33:55 10° W 20:37:24 83° N 20:39:58 17° E
Spot 2 Rocket 4.0 20:34:12 19° SE 20:37:31 46° ENE 20:42:20 10° N
SJ 16-02 3.4 20:38:19 12° E 20:38:19 12° E 20:39:51 10° ENE
DELTA 2 R/B (1) 4.2 20:33:32 10° W 20:38:41 40° SSW 20:41:51 21° SE
Sich 1 3.1 20:34:58 10° N 20:39:18 79° W 20:43:01 14° S
COSMOS 2406 4.3 20:35:03 10° N 20:40:06 32° NE 20:43:43 17° ESE
Meteor 1-20 Rocket 4.2 20:36:44 10° NNW 20:42:24 86° W 20:47:10 14° S
Cosmos 2082 Rocket 4.0 20:38:31 10° N 20:42:34 20° NE 20:46:28 10° E
BREEZE-M DEB (TANK) 4.4 20:43:25 10° WSW 20:44:41 13° SSW 20:45:33 12° SSW
CZ-4C R/B 3.5 20:38:14 10° NNW 20:45:04 49° NE 20:51:18 17° ESE
Cosmos 1782 2.9 20:43:16 20° SSE 20:45:47 54° E 20:49:41 10° NNE
Cosmos 1500 4.0 20:42:29 10° N 20:45:56 33° ENE 20:47:10 26° ESE
ERS-1 Rocket 3.6 20:50:52 23° SE 20:53:29 42° ENE 20:58:13 10° N
SPOT 5 3.6 20:52:52 24° SE 20:55:28 43° ENE 21:00:24 10° N
Cosmos 1503 Rocket 4.0 20:50:28 10° SSW 20:55:38 88° WNW 21:00:53 10° NNE
Cosmos 1271 Rocket 4.4 21:00:22 19° E 21:00:22 19° E 21:03:05 10° NE
Cosmos 1151 Rocket 2.9 20:58:03 18° S 21:01:12 82° E 21:05:36 10° N
Cosmos 1777 Rocket 4.4 20:58:39 24° SSE 21:01:17 43° ESE 21:06:11 10° NE
USA 290 3.0 20:58:31 10° NW 21:01:39 45° WSW 21:02:58 27° SSW
Terra 2.7 21:02:22 26° ESE 21:04:18 36° ENE 21:08:38 10° N
Cosmos 1602 3.8 21:00:30 10° NNW 21:04:21 72° W 21:06:20 27° S
Cosmos 2278 Rocket 2.8 21:05:44 28° SSE 21:07:47 36° ESE 21:12:55 10° NE
USA 307 4.4 21:04:13 10° NW 21:08:06 33° NNE 21:11:25 13° ENE
CZ-2C R/B 4.1 21:08:24 10° N 21:12:49 62° WNW 21:17:17 10° SSW
Cosmos 1515 Rocket 3.7 21:17:35 39° SSE 21:18:56 57° E 21:23:16 10° NNE
SL-4 R/B 3.9 21:16:21 10° W 21:19:47 21° SW 21:21:08 19° SSW
SPOT 1/Viking Rocket 4.0 21:16:46 21° S 21:20:08 59° W 21:25:18 10° NNW
Cosmos 1844 Rocket 4.2 21:15:04 10° WSW 21:20:11 37° NW 21:25:22 10° NNE
X-37B 0.7 21:17:11 10° W 21:20:09 57° SSW 21:20:09 57° SSW
Cosmos 2084 3.3 21:17:53 22° SSW 21:20:26 64° SE 21:24:39 10° NE
USA 308 4.2 21:17:41 10° NW 21:21:41 36° NNE 21:24:24 18° ENE
SWARM C 4.4 21:19:08 10° N 21:22:29 85° E 21:22:52 67° SSE
ARIANE 5 R/B 2.6 21:20:39 34° S 21:22:30 74° WSW 21:26:51 10° NNW
SWARM A 4.1 21:19:15 10° N 21:22:35 89° E 21:23:01 65° S
Cosmos 1437 2.6 21:25:46 65° W 21:25:51 65° WNW 21:28:41 10° N
JB-3 4.2 21:22:34 10° N 21:26:31 85° WNW 21:27:56 38° SSW
Cosmos 1633 Rocket 3.8 21:24:54 10° NNW 21:29:08 47° W 21:31:23 25° SSW
Cosmos 1812 2.6 21:31:31 55° S 21:32:19 84° E 21:36:12 10° N
Cosmos 1470 Rocket 3.8 21:33:58 10° NNW 21:38:26 67° W 21:39:56 40° SSW
Cosmos 2184 Rocket 4.0 21:32:36 10° N 21:38:51 69° E 21:41:19 38° SSE
Cosmos 1328 Rocket 4.4 21:36:50 19° SW 21:39:46 49° WNW 21:44:05 10° N
Meteor 1-5 Rocket 4.0 21:34:33 10° NNW 21:40:00 88° W 21:42:00 40° S
NOSS 3-4 (A) 4.2 21:36:03 10° NNW 21:42:51 57° NE 21:47:02 27° ESE
NOSS 3-4 (C) 4.2 21:36:10 10° NNW 21:42:57 56° NE 21:47:09 27° ESE
ATLAS 5 CENTAUR R/B 3.0 21:39:03 10° NW 21:44:31 45° WSW 21:47:13 30° S
CARTOSAT-1 4.3 21:44:08 32° SSW 21:45:38 45° W 21:49:48 10° NNW
Cosmos 2074 Rocket 3.9 21:40:29 10° N 21:46:50 81° E 21:49:23 39° SSE
NOSS 3-3 (A) 4.1 21:45:39 10° SW 21:51:24 70° NW 21:58:02 10° NE
NOSS 3-3 (C) 4.1 21:45:46 10° SW 21:51:31 71° NW 21:58:08 10° NE
Cosmos 1666 2.5 21:48:20 10° NNW 21:52:05 79° W 21:52:11 78° WSW
Cosmos 1933 Rocket 3.6 21:48:39 10° NNW 21:52:59 71° W 21:53:49 55° SSW
Nadezhda 1 Rocket 4.1 21:51:52 41° SSE 21:53:53 59° E 22:00:02 10° NNE
Cosmos 1833 Rocket 2.6 21:48:18 10° NNW 21:53:59 81° WSW 21:55:42 47° SSE
ATLAS 2AS CENTAUR R/B 3.6 21:49:14 10° NNW 21:56:22 45° NE 22:00:32 22° E
Meteor 2-12 Rocket 4.4 21:51:04 10° N 21:57:09 71° E 21:59:02 45° SSE
Cosmos 1743 4.3 21:54:05 10° NNE 21:56:52 23° ENE 21:56:52 23° ENE
BREEZE-M DEB (TANK) 3.7 21:57:11 10° WNW 21:57:58 20° NW 21:57:58 20° NW
USA 215 4.3 21:56:04 10° E 22:02:05 41° NNE 22:08:07 10° NW
Cosmos 1538 Rocket 4.1 21:57:14 10° NNW 22:02:37 74° WSW 22:03:56 51° S
USA 305 3.3 21:59:43 10° NW 22:03:56 58° NNE 22:04:41 49° ENE
Iridium 4 Rocket 4.0 22:01:47 34° SSW 22:04:18 68° W 22:10:12 10° N
Cosmos 1610 Rocket 4.4 22:02:43 10° N 22:08:54 77° E 22:10:38 49° SSE
Cosmos 158 Rocket 3.6 22:09:59 10° NNW 22:14:54 88° ENE 22:15:27 70° SSE
SJ 16-02 1.5 22:15:15 57° SW 22:15:59 70° WNW 22:20:26 10° NNE
Cosmos 1733 Rocket 4.3 22:12:23 10° NNE 22:16:02 29° ENE 22:16:02 29° ENE
Cosmos 2228 Rocket 3.0 22:17:34 74° SW 22:17:53 80° W 22:22:21 10° N
Meteor 1-27 Rocket 3.7 22:18:38 53° S 22:20:05 83° E 22:26:01 10° NNE
Cosmos 1680 Rocket 3.8 22:15:18 10° NNW 22:20:33 56° ENE 22:21:27 50° ESE
Cosmos 2341 Rocket 4.4 22:15:19 10° N 22:21:35 53° ENE 22:23:08 44° ESE
USA 306 2.9 22:18:49 10° NW 22:23:05 73° NNE 22:23:05 73° NNE
COSMOS 2406 3.7 22:19:11 10° NW 22:24:35 46° WSW 22:25:47 40° SW
Cosmos 2082 Rocket 2.1 22:21:44 10° NNW 22:27:23 84° WSW 22:28:19 63° SSE
CZ-4C R/B 3.4 22:26:45 10° NW 22:33:54 53° WSW 22:36:28 40° SSW
Cosmos 1271 Rocket 4.0 22:35:28 34° W 22:35:57 35° WNW 22:39:40 10° N
Cosmos 2218 Rocket 4.4 22:34:44 10° N 22:40:48 49° ENE 22:42:06 43° ESE
Terra 3.2 22:41:15 26° WSW 22:42:05 28° W 22:46:10 10° NW
Meteor 1-11 Rocket 4.4 22:38:00 10° NNW 22:43:46 51° W 22:45:14 41° SW
Okean 1 4.4 22:46:34 37° NE 22:46:34 37° NE 22:49:20 10° NNE
USA 307 3.4 22:44:09 10° WNW 22:47:31 54° WNW 22:47:31 54° WNW
Cosmos 1340 Rocket 3.3 22:46:15 10° NNW 22:49:40 58° NW 22:49:40 58° NW
Cosmos 2278 Rocket 3.4 22:47:29 14° WSW 22:51:50 38° NW 22:57:07 10° NNE
Spot 4 3.7 22:53:27 86° E 22:53:28 87° E 22:58:23 10° NNW
Cosmos 923 Rocket 4.2 22:50:30 10° NNW 22:55:39 58° WSW 22:55:53 57° WSW
Cosmos 1862 Rocket 4.2 22:57:00 48° NE 22:57:00 48° NE 23:00:24 10° NNE
Cosmos 1544 4.5 22:52:46 10° NNW 22:55:12 35° NW 22:55:12 35° NW
Cosmos 1898 Rocket 3.3 22:57:39 82° S 22:57:51 86° ESE 23:03:13 10° NNE
Cosmos 1536 4.2 22:56:18 10° NNW 22:59:30 33° WNW 22:59:30 33° WNW
USA 308 3.9 22:57:39 10° WNW 23:00:30 39° WNW 23:00:30 39° WNW
Cosmos 2369 Rocket 3.3 23:03:27 29° E 23:03:27 29° E 23:07:33 10° NE
COBE Rocket 4.3 23:07:04 53° E 23:07:17 53° ENE 23:12:15 10° N
Meteor 2-9 Rocket 4.1 23:04:13 10° N 23:10:03 78° ENE 23:10:35 71° SE
SL-8 Rocket 3.9 23:04:11 10° N 23:10:33 88° W 23:11:34 66° S
Cosmos 1943 Rocket 2.1 23:11:55 67° ESE 23:11:55 67° ESE 23:17:25 10° NNE
Cosmos 1975 3.8 23:09:16 10° N 23:12:12 43° NNE 23:12:12 43° NNE
Cosmos 2084 Rocket 4.2 23:09:21 10° NNW 23:13:20 49° NE 23:13:20 49° NE
ALOS 2 2.9 23:16:05 66° N 23:16:05 66° N 23:19:54 10° NNW
DNEPR-1 R/B 4.1 23:19:56 70° ESE 23:19:56 70° ESE 23:24:45 10° NE
Cosmos 1707 Rocket 4.5 23:20:01 41° WNW 23:20:01 41° WNW 23:24:03 10° N
Meteor 2-4 Rocket 4.0 23:20:31 54° ESE 23:20:43 54° E 23:26:14 10° NNE
Cosmos 44 3.4 23:15:21 10° NW 23:20:48 88° W 23:20:48 88° W
Okean 1-7 4.2 23:30:15 36° NE 23:30:15 36° NE 23:33:16 10° NNE
Cosmos 372 Rocket 4.1 23:30:36 63° ENE 23:30:36 63° ENE 23:35:11 10° NNE
Meteor 1-18 Rocket 4.1 23:33:04 74° SW 23:33:31 79° WNW 23:39:09 10° N
NOSS 3-4 (A) 4.5 23:27:10 10° NW 23:33:43 40° WSW 23:34:28 39° SW
NOSS 3-4 (C) 4.4 23:27:16 10° NW 23:33:50 40° WSW 23:34:34 40° SW
Cosmos 1238 Rocket 4.1 23:29:57 10° NNW 23:36:04 53° W 23:36:39 51° WSW
SL-24 R/B - RUBIN 2 4.2 23:32:48 10° NW 23:37:29 56° W 23:37:29 56° W
SeaSat 1 3.0 23:34:15 10° NE 23:38:19 48° E 23:38:19 48° E
Cosmos 864 Rocket 4.4 23:33:08 10° NNW 23:39:16 68° W 23:39:57 63° SW
Cosmos 2242 Rocket 4.2 23:40:21 51° NE 23:40:21 51° NE 23:43:55 10° NNE
USA 215 3.2 23:42:20 44° ESE 23:44:41 86° NE 23:51:15 10° NW
Cosmos 2297 4.3 23:45:50 43° W 23:47:09 52° WNW 23:52:44 10° NNE
ATLAS 2AS CENTAUR R/B 2.9 23:40:28 10° NW 23:47:29 52° WSW 23:47:56 51° SW
Cosmos 2181 Rocket 4.5 23:52:11 42° WSW 23:53:26 48° WNW 23:59:23 10° N
